OpenBCM V1.13 (Linux)

Packet Radio Mailbox

DB0FHN

[JN59NK Nuernberg]

 Login: GUEST





  
I0OJJ  > KEPS     06.05.25 02:52l 364 Lines 17239 Bytes #999 (0) @ AMSAT
BID : ORB25126.1
Read: DJ6UX GUEST
Subj: 2Line Orbital Elements 25126.AMSAT
Path: DB0FHN<DB0FFL<OE5XBL<OE6XPE<DB0ERF<DK0WUE<PD0LPM<PI8ZTM<PI8LAP<VE2PKT<
      I0OJJ<I0OJJ
Sent: 250506/0025z @:I0OJJ.ITA.EU [Rome] obcm1.08-6-g5b69

>From i0ojj%i0ojj.ita.eu@i0ojj.ampr.org Tue May  6 02:25:08 2025
Received: from i0ojj.ampr.org by i0ojj.ampr.org (JNOS2.0p.7) with SMTP
	id AA17031133 ; Tue, 06 May 2025 02:25:08 +0200
Message-Id: <ORB25126.1@i0ojj.bbs>
>From: i0ojj@i0ojj.ita.eu
X-JNOS-User-Port: Telnet   (i0ojj @ 44.134.109.10)  -> Sending message

From: I0OJJ @ I0OJJ.ITA.EU (Gustavo)
To:   KEPS @ AMSAT
X-Info: This message was generated automatically


QST de W1STR

AMSAT Orbital Elements for Amateur Satellites in TLE Format
>From Orbital Analysis Office
New England Sci-Tech STEM Education Center
Natick, MA May 06, 2025
To all radio amateurs


These element sets describe the orbits of various satellites 
in use by the amateur radio community. For details see:
www.amsat.org/keplerian-elements-formats/

A daily update of element sets is available at:
www.amsat.org/tle/daily-bulletin.txt
or without bulletin text:
www.amsat.org/tle/dailytle.txt


AO-07
1 07530U 74089B   25125.47541434 -.00000023  00000-0  14650-3 0  9995
2 07530 101.9942 129.3649 0012170 187.3446 327.2014 12.53688856309666
UO-11
1 14781U 84021B   25125.46310829  .00002422  00000-0  26125-3 0  9993
2 14781  97.7517  92.5355 0009532  92.2373 267.9936 14.89278215217417
AO-27
1 22825U 93061C   25125.88160388  .00000178  00000-0  85041-4 0  9993
2 22825  98.7389 187.2600 0007880 207.5600 152.5165 14.30786984649028
FO-29
1 24278U 96046B   25125.48590205  .00000028  00000-0  61522-4 0  9996
2 24278  98.5796  23.9917 0350955  73.5658 290.3748 13.53246222418276
NOAA-15
1 25338U 98030A   25125.82234057  .00000296  00000-0  13945-3 0  9999
2 25338  98.5378 151.7863 0011521 100.8101 259.4378 14.26958989403449
GO-32
1 25397U 98043D   25125.84844244  .00000150  00000-0  85029-4 0  9997
2 25397  98.9684 104.2471 0000860   7.4431 352.6759 14.24305774393564
ISS
1 25544U 98067A   25125.60140539  .00010371  00000-0  19370-3 0  9998
2 25544  51.6369 157.9991 0002270  89.3670  52.7270 15.49361694508551
NO-44
1 26931U 01043C   25124.66964058  .00000286  00000-0  13801-3 0  9999
2 26931  67.0511 220.6840 0005722 272.7156  87.3291 14.31716373231968
SO-50
1 27607U 02058C   25125.52067299  .00001793  00000-0  24125-3 0  9999
2 27607  64.5542 308.7472 0052147 342.2211  17.7067 14.81530082204247
CO-55
1 27844U 03031E   25125.82816040  .00000511  00000-0  24171-3 0  9991
2 27844  98.6770 134.5493 0008422 291.1659  68.8620 14.23968016133728
CO-57
1 27848U 03031J   25125.76038539  .00000441  00000-0  21408-3 0  9999
2 27848  98.6798 134.5142 0008509 310.7887  49.2553 14.23306524133469
RS-22
1 27939U 03042A   25125.88873529  .00001776  00000-0  28934-3 0  9994
2 27939  98.3258 294.5097 0012651 117.8038  19.8515 14.72261655155724
NOAA-18
1 28654U 05018A   25125.79790916  .00000288  00000-0  17591-3 0  9996
2 28654  98.8422 205.6649 0013511 224.4570 135.5519 14.13591910 28831
CO-58
1 28895U 05043F   25124.87381642  .00002804  00000-0  46575-3 0  9991
2 28895  98.2448 268.7912 0015606  63.4323 296.8480 14.70889411 41929
CO-65
1 32785U 08021C   25125.88200065  .00007366  00000-0  53611-3 0  9991
2 32785  97.7811  96.8034 0009178 339.7183  20.3677 15.04061017923935
AAUSAT2
1 32788U 08021F   25125.46798832  .00626984  15068-3  23672-2 0  9991
2 32788  97.5943 123.1178 0008945 142.5290 217.6606 15.87658669927950
CO-66
1 32791U 08021J   25125.90575051  .00016634  00000-0  82385-3 0  9999
2 32791  97.7263 105.2007 0001652 314.4163  45.6934 15.17849588925316
RS-30
1 32953U 08025A   25125.79599510  .00000046  00000-0  25828-3 0  9995
2 32953  82.5024 248.8064 0020497 121.3259 238.9831 12.43163691769217
NOAA-19
1 33591U 09005A   25125.86951897  .00000249  00000-0  15636-3 0  9992
2 33591  98.9990 190.3763 0014858 101.9089 258.3750 14.13356023837208
SRMSAT
1 37841U 11058D   25125.12584390  .00000526  00000-0  14220-3 0  9990
2 37841  19.9734   9.0933 0011731  35.3942 123.8213 14.11423910700318
ZACUBE-1
1 39417U 13066B   25125.14766115  .00006039  00000-0  52868-3 0  9996
2 39417  97.7765  82.3652 0044888 168.1315 192.0975 14.96299938619616
Delfi-N3xt
1 39428U 13066N   25125.32727449  .00009133  00000-0  93634-3 0  9999
2 39428  97.8357  43.3869 0087395 115.9598 245.0655 14.87829796614010
GOMX-1
1 39430U 13066Q   25125.84983931  .00002363  00000-0  37423-3 0  9991
2 39430  97.6880 346.6405 0131498 304.0313  54.8462 14.67511911610313
LO-74
1 39440U 13066AA  25125.41650907  .00005099  00000-0  52078-3 0  9991
2 39440  97.8471  70.2314 0060770 297.0797  62.4228 14.89681310617409
AO-73
1 39444U 13066AE  25125.83991623  .00009864  00000-0  74660-3 0  9999
2 39444  97.7784  87.6368 0042182 142.5322 217.8856 15.01799610618968
DTUSAT-2
1 40030U 14033W   25124.85830017  .00009433  00000-0  62066-3 0  9996
2 40030  98.0535  94.9700 0009417 169.3993 190.7433 15.07757679591016
EO-80
1 40032U 14033Y   25125.87588031  .00009702  00000-0  63662-3 0  9999
2 40032  98.0404  95.7385 0010381 113.0610 247.1712 15.07842347591660
LILACSAT-2
1 40908U 15049K   25125.87810836  .00015099  00000-0  40430-3 0  9994
2 40908  97.5090 145.4040 0007307 286.8863  73.1580 15.38095752532895
IO-86
1 40931U 15052B   25038.81889873  .00001817  00000-0  15548-3 0  9993
2 40931   6.0001 108.1159 0012838 187.7041 172.2889 14.78568669506492
Horyu-4
1 41340U 16012D   25124.09020606  .00029473  00000-0  82945-3 0  9995
2 41340  30.9977  17.0351 0007495  27.1826 332.9210 15.35234154507170
Lapan A3
1 41603U 16040E   25125.83166746  .00004859  00000-0  17150-3 0  9994
2 41603  97.1382 131.8084 0012231  42.0090 318.2086 15.29610810492472
CAS-2T
1 41847U 16066G   25125.46682699  .00001153  00000-0  17475-3 0  9995
2 41847  98.4208 200.2321 0345226 284.7932  71.5254 14.43389327445959
CAS-4B
1 42759U 17034B   25125.59938556  .00069952  00000-0  86516-3 0  9997
2 42759  43.0072 169.6936 0018350  43.2542 316.9759 15.59005880437131
CAS-4A
1 42761U 17034D   25125.59373368  .00072533  00000-0  86273-3 0  9993
2 42761  43.0108 167.2186 0019536  48.0102 312.2422 15.59986932437151
TechnoSat
1 42829U 17042E   25125.79292226  .00004417  00000-0  34493-3 0  9995
2 42829  97.3935 296.1664 0015160  43.1207 317.1202 15.01513264425507
AO-91
1 43017U 17073E   25125.60781382  .00009211  00000-0  47938-3 0  9990
2 43017  97.5290 357.2697 0172753 285.8850  72.3396 15.04186402403951
S-Net D
1 43186U 18014G   25125.68051201  .00007682  00000-0  45730-3 0  9999
2 43186  97.5648  28.9464 0008922 356.7397   3.3774 15.11470151397107
S-Net B
1 43187U 18014H   25125.48684950  .00007217  00000-0  43011-3 0  9995
2 43187  97.5655  28.7248 0009464 351.9651   8.1426 15.11447282397078
S-Net A
1 43188U 18014J   25125.68101243  .00007748  00000-0  46106-3 0  9994
2 43188  97.5665  29.0623 0009445 351.9280   8.1796 15.11475639397109
S-Net C
1 43189U 18014K   25125.48916397  .00007196  00000-0  42878-3 0  9996
2 43189  97.5678  28.8808 0010662 343.4403  16.6477 15.11444768395626
Ten-Koh
1 43677U 18084G   25125.05227742  .00003494  00000-0  28306-3 0  9994
2 43677  98.0908 295.8976 0007418  45.5121 314.6707 15.00405890354919
PO-101
1 43678U 18084H   25125.86022548  .00002534  00000-0  21892-3 0  9998
2 43678  98.1024 300.6684 0009168  45.6611 314.5360 14.98171116355181
QO-100
1 43700U 18090A   25125.88348872  .00000137  00000-0  00000+0 0  9995
2 43700   0.0152 257.1890 0001929 182.8269 127.8145  1.00270152 23835
MinXSS-2
1 43758U 18099A   25125.16357161  .00019806  00000-0  80399-3 0  9995
2 43758  97.5036 191.1111 0010409 277.9850  82.0206 15.24585243351574
AO-95
1 43770U 18099N   25125.88515364  .00011963  00000-0  61465-3 0  9998
2 43770  97.4947 184.3658 0009663 340.8330  19.2538 15.16596841351297
RANGE-A
1 43773U 18099R   25124.85718575  .00005985  00000-0  38463-3 0  9995
2 43773  97.4518 174.2973 0009877 321.5328  38.5196 15.08750642350837
MOVE-II
1 43780U 18099Y   25124.94597913  .00187412  00000-0  20231-2 0  9993
2 43780  97.4675 198.2235 0005324 227.3169 132.7641 15.63017921352218
SNUSat 2
1 43782U 18099AA  25124.66036117  .00008774  00000-0  48547-3 0  9992
2 43782  97.4622 180.1963 0010408 277.1165  82.8883 15.14044778351069
SnugLite
1 43784U 18099AC  25125.39508905  .00011697  00000-0  59662-3 0  9992
2 43784  97.4440 180.4089 0001791 269.0925  91.0103 15.16894605351308
ITASat 1
1 43786U 18099AE  25124.89167411  .00008855  00000-0  51142-3 0  9998
2 43786  97.4598 180.0350 0013355 334.9726  25.0856 15.12471601351069
EAGLET 1
1 43790U 18099AJ  25125.66864580  .00005140  00000-0  33090-3 0  9996
2 43790  97.4792 180.8626 0010614 314.6887  45.3476 15.08752094350809
ESEO
1 43792U 18099AL  25125.83858007  .00001673  00000-0  13032-3 0  9995
2 43792  97.4486 174.7551 0010736 285.7670  74.2371 15.02470890350601
CSIM
1 43793U 18099AM  25124.78974787  .00161773  00000-0  17697-2 0  9991
2 43793  97.4844 200.2720 0007398 229.9686 130.0924 15.62743490352039
JO-97
1 43803U 18099AX  25125.70357276  .00015749  00000-0  73275-3 0  9990
2 43803  97.4690 185.1082 0006061 260.6560  99.3990 15.20015090351470
Suomi 100
1 43804U 18099AY  25125.79509870  .00011955  00000-0  59514-3 0  9994
2 43804  97.4753 184.5908 0010959 266.1989  93.7991 15.17694498351423
ISAT
1 43879U 18111D   25125.22570250  .00025093  00000-0  90403-3 0  9999
2 43879  97.5972  38.8715 0007560 338.4933  21.5987 15.28526090346277
UWE-4
1 43880U 18111E   25125.51055319  .00022024  00000-0  88617-3 0  9992
2 43880  97.5918  37.8768 0011368 344.7784  15.3109 15.24849966346285
Sparrow
1 43881U 18111F   25125.49671922  .00028312  00000-0  98400-3 0  9991
2 43881  97.6113  41.8938 0007539  23.3254 336.8327 15.29676044346424
